Location: Chilton Park
(37.7711°N, 100.0276°W)
Time: 10:58:45
(UTC+00:00)

Cosmos 1500 - Visible Passes

Search period start: 25 June 2022 00:00
Search period end: 05 July 2022 00:00
Orbit: 492 x 511 km, 82.5° (Epoch: 24 June)

Date Brightness Start Highest point End Pass type
(mag) Time Alt. Az. Time Alt. Az. Time Alt. Az.
25 Jun 4.9 10:02:43 10° SSE 10:06:05 31° E 10:09:28 10° NNE visible
26 Jun 5.4 09:43:45 10° SE 09:46:44 22° E 09:49:43 10° NE visible
27 Jun 5.9 09:24:58 10° SE 09:27:22 16° E 09:29:47 10° NE visible
28 Jun 6.1 09:06:41 10° ESE 09:08:02 12° E 09:09:23 10° ENE visible
28 Jun 3.9 10:39:31 10° SSW 10:43:02 37° W 10:46:34 10° N visible
29 Jun 3.4 10:20:14 12° SSW 10:23:33 53° W 10:27:15 10° N visible
30 Jun 3.1 10:01:19 18° SSW 10:04:05 78° W 10:07:51 10° N visible
01 Jul 3.3 09:42:22 23° S 09:44:37 72° E 09:48:23 10° NNE visible
02 Jul 3.9 09:23:22 26° SSE 09:25:10 48° E 09:28:49 10° NNE visible
03 Jul 4.5 09:04:21 25° SE 09:05:44 33° E 09:09:09 10° NNE visible
03 Jul 5.3 10:39:27 10° WSW 10:41:16 13° WNW 10:43:03 10° NW visible
04 Jul 5.0 08:45:18 21° ESE 08:46:19 24° E 08:49:23 10° NE visible
04 Jul 4.9 10:20:02 14° WSW 10:21:40 18° WNW 10:24:17 10° NNW visible
